Home   Weather   El Paso   Past weeks

Flag for USA Past Weather in El Paso, Texas, USA — Yesterday and Last 2 Weeks

Now
79 °F

Scattered clouds.


Feels Like: 81 °F
Forecast: 69 / 86 °F
Wind: 7 mph from East

Location: El Paso International Airport

Current Time: Aug 31, 2016 at 8:05:29 PM

Latest Report: Aug 31, 2016 at 6:51 PM


Visibility: 10 mi

Pressure: 29.90 "Hg (26.24 "Hg at 1142m altitude)

Humidity: 60%

Dew Point: 64 °F

Location of El PasoLocation

Past Weather in El Paso — Graph

°F

El Paso Temperature Yesterday

Maximum temperature yesterday: 77 °F (at 4:51 PM)
Minimum temperature yesterday: 67 °F (at 11:51 AM)
Average temperature yesterday: 72 °F

High & Low Weather Summary for the Past Weeks

 TemperatureHumidityPressure
High95 °F (Aug 19, 4:51 PM)93% (Aug 30, 11:51 AM)30.10 "Hg (Aug 30, 11:51 AM)
Low63 °F (Aug 21, 5:00 PM)12% (Aug 17, 2:51 PM)29.65 "Hg (Aug 19, 5:51 PM)
Average77 °F55%29.88 "Hg
* Reported Aug 16 6:51 PM — Aug 31 6:51 PM, El Paso, Weather by CustomWeather, © 2016

Note: Actual official high and low records may vary slightly from our data, if they occured in-between our weather recording intervals... More about our weather records

Advertising

El Paso Weather History for the Previous 24 Hours

Scroll right to see more
 ConditionsComfort  
Time TempWeatherWind HumidityBarometerVisibility
6:51 PM
Wed, Aug 31
79 °FScattered clouds.7 mph60%29.90 "Hg10 mi
5:51 PM81 °FScattered clouds.8 mph51%29.88 "Hg10 mi
4:51 PM81 °FScattered clouds.9 mph53%29.88 "Hg10 mi
3:51 PM79 °FBroken clouds.7 mph60%29.90 "Hg10 mi
2:51 PM80 °FBroken clouds.7 mph62%29.93 "Hg10 mi
1:51 PM79 °FLight rain. Broken clouds.7 mph56%29.96 "Hg10 mi
12:51 PM78 °FBroken clouds.7 mph60%29.97 "Hg10 mi
11:51 AM77 °FBroken clouds.3 mph62%30.00 "Hg10 mi
10:51 AM75 °FBroken clouds.5 mph66%30.02 "Hg10 mi
9:51 AM72 °FPartly sunny.7 mph76%30.01 "Hg10 mi
8:51 AM71 °FMore clouds than sun.No wind78%30.00 "Hg10 mi
7:51 AM70 °FCloudy.3 mph81%29.99 "Hg10 mi
6:51 AM69 °FPassing clouds.3 mph84%29.99 "Hg10 mi
5:51 AM70 °FMostly cloudy.6 mph81%29.96 "Hg10 mi
4:51 AM70 °FMostly cloudy.3 mph81%29.96 "Hg10 mi
3:51 AM70 °FMostly cloudy.No wind81%29.96 "Hg10 mi
2:51 AM70 °FOvercast.No wind79%29.98 "Hg10 mi
1:51 AM69 °FLight rain. Partly cloudy.No wind87%30.00 "Hg10 mi
12:51 AM70 °FPassing clouds.No wind81%30.01 "Hg10 mi
11:51 PM
Tue, Aug 30
70 °FOvercast.3 mph81%30.01 "Hg10 mi
10:51 PM70 °FOvercast.7 mph81%30.00 "Hg10 mi
9:51 PM71 °FPartly cloudy.7 mph76%29.99 "Hg10 mi
8:51 PM72 °FPartly cloudy.10 mph73%29.96 "Hg10 mi
Weather by CustomWeather, © 2016

See weather overviewHow to use our weather pages